User: anonymous   Login
Location: Oshawa
(43.9000°N, 78.8670°W)
Time: 20:07:41
(UTC-04:00)
Language:

Cosmos 1500 - Orbit

View from above orbital plane
View from above orbital plane
View from above satellite
View from above satellite

Ground track
Ground track

The orbit data is extracted from the following two-line orbital elements,

1 14372U 83099A   16240.65689459  .00001067  00000-0  52496-4 0  9995
2 14372  82.5136 273.5083 0016585  31.5649 105.7922 15.16804588793297
Epoch (UTC): 27 August 2016 15:45:55
Eccentricity: 0.0016585
inclination: 82.5136°
perigee height: 504 km
apogee height: 527 km
right ascension of ascending node: 273.5083°
argument of perigee: 31.5649°
revolutions per day: 15.16804588
mean anomaly at epoch: 105.7922°
orbit number at epoch: 79329

The dashed part of the orbit path shows where the satellite is in the earth's shadow,  

DLR